Погода в Калачинске

Россия / Омская область     55°03′09″N   74°34′54″E
темп.,
°C
ветер,
м/с
пор.,
м/с
влажн.,
%
обл.,
%
осадки,
мм/ч
давл.,
гПа
погр.,
м
19 января, вт
вт1900:00−23зюз47976 0.0 101987
03:00−23зюз47970 0.0 101998
06:00−23зюз49940 0.0 1020141
09:00−24з349514 0.0 102177
12:00−23з359516 0.0 1023117
15:00−22з23950 0.0 102441
18:00−25сз229615 0.0 102520
21:00−26сз11951 0.0 102620
20 января, ср
ср2000:00−27в12931 0.0 102719
03:00−27вюв229221 0.0 102719
06:00−26в349052 0.0 102740
09:00−24вюв4790100 0.0 1026176
12:00−22вюв5990100 0.0 1025254
15:00−20вюв71189100 0.0 1022304
18:00−18вюв71288100 0.1 1020402
21:00−17юв61396100 1.8 1018524
21 января, чт
чт2100:00−16юв4995100 2.3 1016284
03:00−18ю369896 0.1 1016134
06:00−19зюз499698 0.1 1016188
09:00−22юз479799 0.0 1016119
12:00−19юз599391 0.0 1016261
15:00−18юз599386 0.0 1015317
18:00−20юз499679 0.0 1014191
21:00−22зюз48970 0.0 1013136
22 января, пт
пт2200:00−25зюз47970 0.0 1013113
03:00−27зюз45980 0.0 101383
06:00−28з479820 0.0 1013101
09:00−28з369846 0.0 101489
12:00−25зюз469673 0.0 1015217
15:00−24зюз489569 0.0 1015258
18:00−27юз479877 0.0 1015132
21:00−25зюз4897100 0.0 1015220
23 января, сб
сб2300:00−24юз3698100 0.1 1014195
03:00−23юз2399100 0.2 1015132
06:00−23з1199100 0.5 101420
09:00−23ссз2498100 0.3 101695
12:00−22ссз469599 0.3 1019375
15:00−27сз489490 0.0 1023263
18:00−32зсз469546 0.0 102885
21:00−34зсз47960 0.0 103193